Other Public Products
Issued by NWS Grand Forks, ND

Home | Current Version | Previous Version | Text Only | Print | Product List | Glossary Off
Versions: 1 2 3 4 5 6 7 8 9 10 11 12 13 14 15 16 17 18 19 20 21 22 23 24 25 26 27 28 29 30 31 32 33 34 35 36 37 38 39 40 41 42 43 44 45 46 47 48 49 50

000
FPUS83 KFGF 011610
OPUFGF
PRAIRIE TO PINES WEATHER ROUNDUP
NATIONAL WEATHER SERVICE EASTERN NORTH DAKOTA/GRAND FORKS ND
1100 AM CDT WED APR 01 2015

 **SATELLITE DATA USED TO AUGMENT SKY COVER AT AUTOMATED STATIONS**
 *****  WEATHER ACROSS EASTERN NORTH DAKOTA  *****

CITY           SKY/WX    TMP DP  RH WIND       PRES   REMARKS
GRAND FORKS    CLOUDY    58  36  43 S22G29    29.37F
GRAND FORKS AF CLOUDY    56  37  47 S9        29.37R
GRAND CITY NWS   N/A     57 N/A N/A S15         N/A
BUXTON         NOT AVBL
DEVILS LAKE    CLOUDY    48  34  57 SW7       29.35S
FARGO          CLOUDY    62  36  37 S21G26    29.42R
WAHPETON ARPT  CLOUDY    61  34  36 S15G22    29.43S
$$

 *****  WEATHER ACROSS CENTRAL AND WESTERN NORTH DAKOTA  *****

CITY           SKY/WX    TMP DP  RH WIND       PRES   REMARKS
JAMESTOWN      CLOUDY    53  36  52 S7        29.37S
BISMARCK       MOSUNNY   60  41  49 NW24G35   29.49R
MINOT          CLOUDY    52  40  63 W28G33    29.44R
MINOT AFB      CLOUDY    51  46  84 W25G31    29.43R
GARRISON         N/A     55  40  56 NW32G38   29.48R
WILLISTON      PTSUNNY   53  32  44 W24G32    29.59R
DICKINSON      PTSUNNY   49  27  42 NW33G43   29.58R
HETTINGER      MOSUNNY   51  30  44 NW35G47   29.63R
$$

 *****  OTHER OBSERVATIONS NORTHEAST NORTH DAKOTA  *****

CITY           SKY/WX    TMP DP  RH WIND       PRES   REMARKS
WALHALLA         N/A     50  36  57 S13G21    29.36S
LANGDON        NOT AVBL
CAVALIER       FAIR      52  37  58 S16       29.36F
GRAFTON        NOT AVBL
CANDO          NOT AVBL
FORT TOTTEN      N/A     53  34  49 W7        29.95S
ROLLA          FAIR      50  34  53 NW9       29.37S
RUGBY          NOT AVBL
 ***** THE ABOVE OBSERVATIONS ARE NON NWS ARE NOT QUALITY
        CONTROLLED AND MAY MIS-REPORT RAIN FOR SNOW...
$$

 *****  OTHER OBSERVATIONS SOUTHEAST NORTH DAKOTA *****

CITY           SKY/WX    TMP DP  RH WIND       PRES   REMARKS
COOPERSTOWN    NOT AVBL
VALLEY CITY    FAIR      57  37  47 SW16G24   29.38F
OAKES            N/A     61  39  44 S18G28    29.39S
GWINNER        SUNNY     63  37  39 SW25        N/A
SHEYENNE NWR     N/A     61  40  45 S7        29.95S
BUFFALO        NOT AVBL
WYNDMERE         N/A     64  37  36 SW15        N/A
 ***** THE ABOVE OBSERVATIONS ARE NON NWS ARE NOT QUALITY
       CONTROLLED AND MAY MIS-REPORT RAIN FOR SNOW...
$$

  *****  WEATHER ACROSS NORTHERN MINNESOTA  *****

CITY           SKY/WX    TMP DP  RH WIND       PRES   REMARKS
FLAG ISLAND    MOSUNNY   43  30  61 SE10G17   29.50F
WARROAD        NOT AVBL
ROSEAU         SUNNY     54  37  54 SE16      29.44F
HALLOCK        SUNNY     55  39  54 SE23G29   29.36F
THF RVR FALLS  MOSUNNY   57  36  44 S18       29.42F
HALSTAD        NOT AVBL
FOSSTON        MOSUNNY   55  36  47 S16       29.44F
BAUDETTE       MOSUNNY   49  33  54 SE20G26   29.50F
WASKISH        SUNNY     52  36  54 SE16G24   29.50F
CROOKSTON      PTSUNNY   61  36  39 S21G28    29.41S
$$
  *****  WEATHER ACROSS CENTRAL AND WEST MINNESOTA  *****

CITY           SKY/WX    TMP DP  RH WIND       PRES   REMARKS
BEMIDJI        SUNNY     53  32  44 SE15G21   29.49F
PARK RAPIDS    MOSUNNY   57  32  38 S15       29.50F
WADENA         PTSUNNY   59  36  41 S15G22    29.50F
DETROIT LAKES  PTSUNNY   59  34  38 S17G23    29.46F
MOORHEAD       CLOUDY    61  36  39 S23       29.40F
FERGUS FALLS   PTSUNNY   63  32  31 S20G26    29.46F
ELBOW LAKE     FAIR      63  39  42 S29G36    29.45F
MORRIS MN      CLOUDY    63  41  45 S20       29.46F
STAPLES        PTSUNNY   55  32  41 SE12      29.53F
WHEATON        CLOUDY    61  39  44 S15G25    29.43F
$$
  *****  WEATHER ELSEWHERE ACROSS MINNESOTA  *****

CITY           SKY/WX    TMP DP  RH WIND       PRES   REMARKS
DULUTH         MOSUNNY   38  31  76 E18G26    29.71F
INTRNTL FALLS  MOSUNNY   49  30  48 SE16G26   29.58F
ELY            MOSUNNY   45  28  53 SE21      29.70F
CLOQUET        MOSUNNY   39  30  70 E13G20    29.71F
BRAINERD       PTSUNNY   57  33  40 SE9G22    29.58F
HIBBING        NOT AVBL
ALEXANDRIA     PTSUNNY   63  37  38 S21G30    29.50F
SAINT CLOUD    MOSUNNY   62  35  36 S18G26    29.59F
MINNEAPOLIS    PTSUNNY   64  36  35 SE14      29.70F
$$

  *****  WEATHER ACROSS SOUTH DAKOTA  *****

CITY           SKY/WX    TMP DP  RH WIND       PRES   REMARKS
SIOUX FALLS    PTSUNNY   69  40  34 S22G33    29.60F
BROOKINGS      CLOUDY    63  39  42 S29G38    29.54F
WATERTOWN      CLOUDY    65  41  41 S31G38    29.49R
HURON          CLOUDY    68  38  33 S15       29.48R
SISSETON         N/A     67  39  35 SW39G49   29.36F
ABERDEEN       CLOUDY    65  35  33 S15       29.41F
MITCHELL       CLOUDY    69  41  36 SW16G26   29.54R
PIERRE         CLOUDY    59  37  44 NW25G36   29.51R
MOBRIDGE       MOSUNNY   62  40  44 NW30G37   29.46R
RAPID CITY     PTSUNNY   54  35  48 NW33G41   29.66R
$$

  *****  SOME WEATHER IN NEARBY STATES *****

CITY           SKY/WX    TMP DP  RH WIND       PRES   REMARKS
GLASGOW MT     MOSUNNY   47  26  44 NW29G36   29.71R
GREAT FALLS MT SUNNY     43  12  28 W31G41    29.84R
CHEYENNE WY    MOSUNNY   60  26  27 W14       29.82S
SCOTTSBLUFF NE CLOUDY    63  29  27 W12       29.71R
OMAHA NE       MOSUNNY   71  36  27 S21G29    29.77S
DES MOINES IA  MOSUNNY   72  34  24 S28G39    29.85S
DAVENPORT IA   SUNNY     70  34  26 S17       29.95F
CHICAGO IL     MOSUNNY   59  37  44 S7        30.05S
EAU CLAIRE WI  SUNNY     58  32  37 S14G26    29.81F
LA CROSSE WI   SUNNY     61  33  35 S14       29.86F
$$

  *****  SOME NATIONAL WEATHER *****

CITY           SKY/WX    TMP DP  RH WIND       PRES   REMARKS
LA GUARDIA NY  MOSUNNY   42  14  32 NW9       30.08S
RALEIGH NC     MOSUNNY   58  36  43 N8        30.14S
ATLANTA GA     MOSUNNY   70  55  59 N6        30.08S
NEW ORLEANS LA MOSUNNY   77  61  57 SW9       30.11R
OKLAHOMA CITY  PTSUNNY   68  59  73 S14G21    29.86R
ALBUQUERQUE NM MOSUNNY   63  29  27 SW10      30.02S
SALT LAKE CITY MOSUNNY   44  21  40 N13       30.13S
LOS ANGELES CA PTSUNNY   61  55  81 S3        30.01S
BOISE ID       SUNNY     41  26  55 NW10      30.21S
SEATTLE WA     PTSUNNY   44  37  76 S7        30.29R
$$

*** WEATHER ACROSS MANITOBA...SASKATCHEWAN AND ONTARIO ***
                ***ONTARIO***

CITY           SKY/WX    TMP DP  RH WIND       PRES   REMARKS
GERALDTON      PTSUNNY   36  25  64 S12       29.94F
THUNDER BAY    FRZ DRZL  28  28 100 E9        29.94F FOG     WCI  20
SIOUX LOOKOUT  PTSUNNY   37  30  75 SE12      29.72F
TORONTO        MOSUNNY   39   3  22 SE8       30.17S
BIG TROUT LK   MOSUNNY   34  19  55 E3        29.80F
PICKLE LAKE    CLOUDY    36  27  69 SE13      29.79F
DRYDEN         PTSUNNY   41  32  70 SE13G18   29.65F
KENORA         PTSUNNY   43  30  61 SE17G26   29.54F
$$
                *** MANITOBA***

CITY           SKY/WX    TMP DP  RH WIND       PRES   REMARKS
BRANDON        PTSUNNY   43  34  70 N8        29.37S
DAUPHIN        PTSUNNY   39  34  81 NW7       29.39F
ISLAND LAKE    CLOUDY    36  30  80 E6        29.67F
PILOT MOUND    NOT AVBL
THE PAS        CLOUDY    37  32  81 E14G20    29.44S
THOMPSON       CLOUDY    25  19  80 NE14G21   29.71F WCI  13
WINNIPEG       PTSUNNY   50  34  53 SE17      29.39F
LYNN LAKE      LGT SNOW  14  10  85 NE16G22   29.71S WCI  -2
CHURCHILL      PTSUNNY    0  -4  85 N12       30.04R WCI -18
GILLAM         LGT SNOW  14   9  79 NE13      29.83F WCI   0
$$
                ***SASKATCHEWAN***

CITY           SKY/WX    TMP DP  RH WIND       PRES   REMARKS
ESTEVAN        CLOUDY    46  37  71 W28G37    29.52R
KINDERSLEY     MOSUNNY   41  27  56 W29G41    29.56S
LLOYDMINSTER   LGT RAIN  37  32  81 W17G26    29.40F
PRINCE ALBERT  DRIZZLE   36  36 100 W6        29.39S FOG
REGINA         NOT AVBL



USA.gov is the U.S. government's official web portal to all federal, state and local government web resources and services.